TimeCDT,TemperatureF,Dew PointF,Humidity,Sea Level PressureIn,VisibilityMPH,Wind Direction,Wind SpeedMPH,Gust SpeedMPH,PrecipitationIn,Events,Conditions,WindDirDegrees,DateUTC
12:53 AM,73.9,63.0,68,30.03,10.0,NE,4.6,-,N/A,,Clear,50,2013-08-17 05:53:00
1:53 AM,73.0,63.0,71,30.03,10.0,NE,3.5,-,N/A,,Clear,40,2013-08-17 06:53:00
2:53 AM,73.0,64.0,73,30.02,10.0,NE,4.6,-,N/A,,Clear,50,2013-08-17 07:53:00
3:53 AM,71.1,64.0,78,30.02,10.0,NE,4.6,-,N/A,,Clear,40,2013-08-17 08:53:00
4:53 AM,70.0,64.0,81,30.01,10.0,Calm,Calm,-,N/A,,Clear,0,2013-08-17 09:53:00
5:53 AM,70.0,64.9,84,30.03,9.0,NNE,4.6,-,N/A,,Clear,20,2013-08-17 10:53:00
6:53 AM,69.1,64.0,84,30.04,8.0,NE,5.8,-,N/A,,Clear,40,2013-08-17 11:53:00
7:53 AM,70.0,64.0,81,30.05,7.0,NE,5.8,-,N/A,,Clear,40,2013-08-17 12:53:00
8:53 AM,73.0,63.0,71,30.06,9.0,ENE,9.2,-,N/A,,Clear,70,2013-08-17 13:53:00
9:53 AM,75.9,64.9,69,30.07,9.0,ENE,5.8,-,N/A,,Clear,60,2013-08-17 14:53:00
10:53 AM,81.0,64.9,58,30.07,10.0,NE,6.9,-,N/A,,Clear,40,2013-08-17 15:53:00
11:53 AM,84.0,64.9,53,30.05,10.0,Variable,4.6,-,N/A,,Clear,0,2013-08-17 16:53:00
12:53 PM,87.1,64.0,46,30.03,10.0,North,8.1,-,N/A,,Clear,10,2013-08-17 17:53:00
1:53 PM,89.1,62.1,40,30.01,10.0,ENE,4.6,-,N/A,,Clear,60,2013-08-17 18:53:00
2:53 PM,91.0,60.1,35,29.99,10.0,NE,11.5,17.3,N/A,,Clear,40,2013-08-17 19:53:00
3:53 PM,91.9,59.0,33,29.96,10.0,North,6.9,-,N/A,,Partly Cloudy,360,2013-08-17 20:53:00
4:53 PM,91.9,57.9,32,29.95,10.0,NNE,8.1,-,N/A,,Partly Cloudy,20,2013-08-17 21:53:00
5:53 PM,90.0,57.9,34,29.94,10.0,East,6.9,-,N/A,,Clear,80,2013-08-17 22:53:00
6:53 PM,89.1,57.9,35,29.95,10.0,ENE,11.5,-,N/A,,Clear,60,2013-08-17 23:53:00
7:53 PM,84.9,57.0,38,29.96,10.0,East,5.8,-,N/A,,Clear,80,2013-08-18 00:53:00
8:53 PM,81.0,57.0,44,29.98,10.0,East,4.6,-,N/A,,Clear,80,2013-08-18 01:53:00
9:53 PM,79.0,57.9,48,29.99,10.0,Calm,Calm,-,N/A,,Clear,0,2013-08-18 02:53:00
10:53 PM,77.0,57.0,50,30.01,10.0,Calm,Calm,-,N/A,,Clear,0,2013-08-18 03:53:00
11:53 PM,75.9,55.9,50,30.01,10.0,Calm,Calm,-,N/A,,Clear,0,2013-08-18 04:53:00